| time (UTC) | temp F | wind direction | speed MPH | gust MPH | rain 1hr in | rain 24hr in | rain mn in | humidity % | barometer mb |
| 20260902113023 | 62 | 245 | 0.0 | 0.0 | 0.00 | 0.23 | 0.00 | 94 | 1021.7 |
| 20260902111523 | 62 | 245 | 0.0 | 0.0 | 0.00 | 0.23 | 0.00 | 94 | 1021.8 |
| 20260902110021 | 62 | 273 | 0.0 | 0.0 | 0.00 | 0.23 | 0.00 | 94 | 1021.6 |
| 20260902104518 | 62 | 273 | 0.0 | 0.0 | 0.00 | 0.23 | 0.00 | 95 | 1021.4 |
| 20260902103016 | 62 | 273 | 0.0 | 0.0 | 0.00 | 0.23 | 0.00 | 95 | 1021.3 |
| 20260902101516 | 62 | 273 | 0.0 | 0.0 | 0.00 | 0.23 | 0.00 | 95 | 1021.2 |
| 20260902100012 | 62 | 273 | 0.0 | 0.0 | 0.00 | 0.23 | 0.00 | 95 | 1021.2 |
| 20260902094511 | 62 | 273 | 0.0 | 0.0 | 0.00 | 0.23 | 0.00 | 95 | 1021.2 |
| 20260902093017 | 62 | 273 | 0.0 | 0.0 | 0.00 | 0.23 | 0.00 | 95 | 1021.0 |
| 20260902091510 | 62 | 273 | 0.0 | 0.0 | 0.00 | 0.23 | 0.00 | 95 | 1021.0 |
| 20260902090005 | 62 | 273 | 0.0 | 0.0 | 0.00 | 0.23 | 0.00 | 95 | 1020.7 |
| 20260902084510 | 63 | 273 | 0.0 | 0.0 | 0.00 | 0.23 | 0.00 | 95 | 1020.6 |
| 20260902083004 | 63 | 273 | 0.0 | 0.0 | 0.00 | 0.23 | 0.00 | 95 | 1020.5 |
| 20260902081500 | 63 | 273 | 0.0 | 1.0 | 0.00 | 0.23 | 0.00 | 95 | 1020.4 |
| 20260902080108 | 63 | 273 | 0.0 | 2.0 | 0.00 | 0.23 | 0.00 | 95 | 1020.0 |
| 20260902074602 | 63 | 273 | 0.0 | 0.0 | 0.00 | 0.24 | 0.00 | 94 | 1020.0 |
| 20260902073109 | 63 | 273 | 0.0 | 0.0 | 0.00 | 0.24 | 0.00 | 94 | 1019.9 |
| 20260902071603 | 63 | 273 | 0.0 | 2.0 | 0.00 | 0.24 | 0.00 | 94 | 1019.8 |
| 20260902070057 | 63 | 273 | 0.0 | 0.0 | 0.00 | 0.24 | 0.00 | 94 | 1019.8 |
| 20260902064556 | 63 | 273 | 0.0 | 0.0 | 0.00 | 0.48 | 0.00 | 94 | 1019.9 |
| 20260902063055 | 63 | 273 | 0.0 | 0.0 | 0.00 | 0.48 | 0.00 | 94 | 1020.0 |
| 20260902061615 | 63 | 273 | 0.0 | 0.0 | 0.00 | 0.48 | 0.00 | 94 | 1020.1 |
| 20260902060058 | 63 | 273 | 0.0 | 0.0 | 0.00 | 0.48 | 0.00 | 94 | 1020.1 |
| 20260902054552 | 63 | 273 | 0.0 | 0.0 | 0.00 | 0.80 | 0.00 | 94 | 1020.0 |
| 20260902053052 | 63 | 273 | 0.0 | 0.0 | 0.00 | 0.80 | 0.00 | 94 | 1020.1 |
| 20260902051551 | 63 | 273 | 0.0 | 1.0 | 0.00 | 0.80 | 0.00 | 94 | 1020.1 |
| 20260902050049 | 63 | 273 | 0.0 | 0.0 | 0.00 | 0.80 | 0.00 | 94 | 1019.8 |
| 20260902044549 | 63 | 273 | 0.0 | 0.0 | 0.00 | 0.88 | 0.00 | 93 | 1020.0 |
| 20260902043052 | 63 | 273 | 0.0 | 0.0 | 0.00 | 0.88 | 0.00 | 93 | 1020.0 |
| 20260902041604 | 63 | 273 | 0.0 | 0.0 | 0.00 | 0.88 | 0.00 | 93 | 1019.9 |
| 20260902040047 | 63 | 273 | 0.0 | 0.0 | 0.00 | 0.88 | 0.00 | 93 | 1019.6 |
| 20260902034543 | 63 | 273 | 0.0 | 0.0 | 0.00 | 0.88 | 0.88 | 93 | 1019.4 |
| 20260902033043 | 64 | 273 | 0.0 | 3.0 | 0.00 | 0.88 | 0.88 | 93 | 1019.2 |
| 20260902031540 | 64 | 273 | 0.0 | 2.0 | 0.00 | 0.88 | 0.88 | 93 | 1019.1 |
| 20260902030039 | 64 | 273 | 0.0 | 2.0 | 0.00 | 0.88 | 0.88 | 93 | 1019.2 |
| 20260902024544 | 64 | 273 | 1.0 | 6.0 | 0.00 | 0.88 | 0.88 | 92 | 1019.0 |
| 20260902023039 | 64 | 263 | 0.0 | 5.0 | 0.00 | 0.88 | 0.88 | 92 | 1019.1 |
| 20260902021546 | 64 | 261 | 0.0 | 2.0 | 0.00 | 0.88 | 0.88 | 92 | 1018.9 |
| 20260902020036 | 64 | 309 | 0.0 | 2.0 | 0.00 | 0.88 | 0.88 | 92 | 1018.8 |
| 20260902014537 | 65 | 333 | 0.0 | 2.0 | 0.00 | 0.88 | 0.88 | 92 | 1018.2 |
| 20260902013032 | 65 | 346 | 0.0 | 4.0 | 0.00 | 0.88 | 0.88 | 91 | 1018.2 |
| 20260902011531 | 65 | 286 | 0.0 | 2.0 | 0.00 | 0.88 | 0.88 | 92 | 1018.0 |
| 20260902010029 | 66 | 286 | 0.0 | 0.0 | 0.00 | 0.88 | 0.88 | 91 | 1017.8 |
| 20260902004528 | 66 | 285 | 0.0 | 4.0 | 0.00 | 0.88 | 0.88 | 91 | 1017.9 |
| 20260902003028 | 66 | 286 | 1.0 | 4.0 | 0.00 | 0.88 | 0.88 | 91 | 1017.7 |
| 20260902001526 | 66 | 285 | 0.0 | 4.0 | 0.00 | 0.88 | 0.88 | 91 | 1017.2 |
| 20260902000024 | 67 | 285 | 1.0 | 3.0 | 0.00 | 0.88 | 0.88 | 91 | 1017.1 |
| 20260901234523 | 67 | 285 | 0.0 | 3.0 | 0.00 | 0.88 | 0.88 | 91 | 1017.3 |
| 20260901233047 | 68 | 285 | 1.0 | 4.0 | 0.00 | 0.88 | 0.88 | 91 | 1017.2 |
| 20260901231522 | 68 | 285 | 1.0 | 5.0 | 0.00 | 0.88 | 0.88 | 91 | 1016.6 |
| 20260901230032 | 69 | 284 | 1.0 | 6.0 | 0.00 | 0.88 | 0.88 | 90 | 1016.7 |
| 20260901224520 | 70 | 281 | 0.0 | 5.0 | 0.00 | 0.88 | 0.88 | 92 | 1016.3 |
| 20260901223020 | 71 | 281 | 0.0 | 3.0 | 0.00 | 0.88 | 0.88 | 93 | 1016.0 |
| 20260901221519 | 72 | 281 | 0.0 | 2.0 | 0.00 | 0.88 | 0.88 | 92 | 1015.9 |
| 20260901220018 | 73 | 281 | 3.0 | 7.0 | 0.00 | 0.88 | 0.88 | 92 | 1015.8 |
| 20260901214533 | 74 | 286 | 2.0 | 4.0 | 0.00 | 0.88 | 0.88 | 92 | 1015.8 |
| 20260901213017 | 75 | 286 | 0.0 | 3.0 | 0.00 | 0.88 | 0.88 | 92 | 1015.7 |
| 20260901211517 | 75 | 286 | 0.0 | 2.0 | 0.00 | 0.88 | 0.88 | 93 | 1015.5 |
| 20260901210016 | 75 | 286 | 0.0 | 2.0 | 0.00 | 0.88 | 0.88 | 92 | 1015.6 |
| 20260901204520 | 76 | 286 | 0.0 | 0.0 | 0.00 | 0.88 | 0.88 | 93 | 1015.6 |
| 20260901203018 | 76 | 286 | 0.0 | 0.0 | 0.00 | 0.88 | 0.88 | 92 | 1015.4 |
| 20260901201515 | 76 | 286 | 0.0 | 0.0 | 0.00 | 0.88 | 0.88 | 92 | 1015.3 |
| 20260901200022 | 76 | 286 | 0.0 | 2.0 | 0.00 | 0.88 | 0.88 | 91 | 1015.5 |
| 20260901194517 | 76 | 286 | 0.0 | 2.0 | 0.00 | 0.88 | 0.88 | 93 | 1015.4 |
| 20260901193011 | 76 | 286 | 0.0 | 0.0 | 0.00 | 0.88 | 0.88 | 94 | 1015.5 |
| 20260901191510 | 75 | 286 | 0.0 | 2.0 | 0.00 | 0.88 | 0.88 | 95 | 1015.5 |
| 20260901190009 | 74 | 286 | 0.0 | 0.0 | 0.00 | 0.88 | 0.88 | 94 | 1015.5 |
| 20260901184505 | 74 | 286 | 0.0 | 0.0 | 0.00 | 0.88 | 0.88 | 95 | 1015.4 |
| 20260901183003 | 74 | 286 | 0.0 | 2.0 | 0.00 | 0.88 | 0.88 | 96 | 1015.5 |
| 20260901181503 | 73 | 286 | 0.0 | 0.0 | 0.00 | 0.88 | 0.88 | 96 | 1015.6 |
| 20260901180059 | 73 | 286 | 0.0 | 2.0 | 0.00 | 0.88 | 0.88 | 96 | 1015.8 |
| 20260901174602 | 73 | 286 | 0.0 | 2.0 | 0.00 | 0.88 | 0.88 | 96 | 1015.7 |
| 20260901173056 | 72 | 286 | 0.0 | 2.0 | 0.02 | 0.88 | 0.88 | 97 | 1015.8 |
| 20260901171556 | 72 | 286 | 0.0 | 1.0 | 0.03 | 0.88 | 0.88 | 97 | 1015.8 |
| 20260901170056 | 72 | 286 | 0.0 | 0.0 | 0.03 | 0.88 | 0.88 | 97 | 1015.8 |
| 20260901164602 | 71 | 286 | 0.0 | 0.0 | 0.06 | 0.88 | 0.88 | 97 | 1015.8 |
| 20260901163050 | 71 | 286 | 0.0 | 0.0 | 0.07 | 0.86 | 0.86 | 97 | 1016.1 |
| 20260901161550 | 71 | 286 | 0.0 | 1.0 | 0.08 | 0.85 | 0.85 | 97 | 1016.7 |
| 20260901160046 | 71 | 286 | 0.0 | 0.0 | 0.08 | 0.85 | 0.85 | 96 | 1017.1 |
| 20260901154547 | 71 | 286 | 0.0 | 0.0 | 0.05 | 0.82 | 0.82 | 96 | 1017.1 |
| 20260901153049 | 71 | 286 | 0.0 | 0.0 | 0.04 | 0.79 | 0.79 | 96 | 1017.2 |
| 20260901151545 | 71 | 286 | 0.0 | 2.0 | 0.05 | 0.77 | 0.77 | 96 | 1016.8 |
| 20260901150044 | 70 | 265 | 0.0 | 2.0 | 0.10 | 0.77 | 0.77 | 96 | 1016.9 |
| 20260901144543 | 70 | 265 | 0.0 | 0.0 | 0.12 | 0.77 | 0.77 | 96 | 1017.0 |
| 20260901143043 | 70 | 265 | 0.0 | 2.0 | 0.10 | 0.75 | 0.75 | 96 | 1017.0 |
| 20260901141545 | 70 | 265 | 0.0 | 0.0 | 0.07 | 0.72 | 0.72 | 96 | 1017.6 |
| 20260901140040 | 70 | 265 | 0.0 | 0.0 | 0.02 | 0.67 | 0.67 | 96 | 1017.3 |
| 20260901134539 | 70 | 265 | 0.0 | 0.0 | 0.00 | 0.65 | 0.65 | 96 | 1017.1 |
| 20260901133039 | 70 | 265 | 0.0 | 0.0 | 0.00 | 0.65 | 0.65 | 96 | 1017.2 |
| 20260901131538 | 70 | 265 | 0.0 | 0.0 | 0.00 | 0.65 | 0.65 | 96 | 1017.0 |
| 20260901130034 | 70 | 265 | 0.0 | 0.0 | 0.00 | 0.65 | 0.65 | 96 | 1017.1 |
| 20260901124536 | 69 | 265 | 0.0 | 0.0 | 0.00 | 0.65 | 0.65 | 96 | 1017.1 |
| 20260901123040 | 69 | 265 | 0.0 | 0.0 | 0.00 | 0.65 | 0.65 | 96 | 1017.2 |
| 20260901121537 | 69 | 265 | 0.0 | 0.0 | 0.00 | 0.65 | 0.65 | 96 | 1017.2 |
| 20260901120031 | 69 | 265 | 0.0 | 0.0 | 0.00 | 0.65 | 0.65 | 96 | 1017.2 |
| 20260901114534 | 68 | 265 | 0.0 | 0.0 | 0.00 | 0.65 | 0.65 | 96 | 1017.4 |